Starlink 31192

operational
NORAD ID: 58794 Int'l Des: 2024-012 Owner: SPXS Country: US Constellation: starlink
LEOCIRCULAR

About Starlink 31192

Description loading...

Live Position

Loading 3D Globe...

Upcoming Passes

Altitude History

Altitude vs Time

uPlot chart will show altitude changes over time

Two-Line Element Set

1 58794U 24012H 25302.99178235 .00002705 00000-0 10773-3 0 9993
2 58794 43.0027 183.6826 0001330 263.3400 96.7300 15.27601491101249
Epoch: Oct 29, 2025 • Age: 41 hours

Current Status

Altitude 483.3 km
Velocity 7.63 km/s
Sub-Earth Point -4.93°S, 120°W
Launch Date Jan 15, 2024
Age 1.7 years
Type internet

Technical Details

Classification Payload
Mass 730.00 kg
Dry Mass 700.00 kg
Total Mass 730.00 kg
Length 0.30 m
Diameter 4.10 m
Span 29.00 m
Shape Box + pan
Manufacturer SPXS
Bus Type Starlink V2M
Phase Status In Orbit
Owner/State SPXS/US

Large Constellations

Loading constellations...